CUSat

operational
NORAD ID: 39266 Int'l Des: 2013-055 Owner: CORN Country: US
LEOPOLAR

CUSatについて

説明を読み込み中...

リアルタイム位置

3D地球を読み込み中...

次回通過

高度履歴

Altitude vs Time

uPlot chart will show altitude changes over time

軌道要素

1 39266U 13055B 26062.54160556 .00175970 82402-5 72386-3 0 9997
2 39266 80.9338 122.5911 0143500 191.7718 168.0177 15.71717450656260
Epoch: Mar 3, 2026 • Age: 30 hours

現在のステータス

高度 399.8 km
速度 7.66 km/s
衛星直下点 -65.50°S, 143.4°W
打ち上げ日 Sep 29, 2013
運用期間 12.4 years
タイプ other

技術仕様

分類 Payload
質量 23.00 kg
乾燥質量 23.00 kg
総質量 23.00 kg
長さ 0.26 m
直径 0.46 m
スパン 0.46 m
形状 Hex Cyl
製造者 CORN
バスタイプ CUSAT
フェーズステータス In Orbit
所有者/国 CORN/US

大規模コンステレーション

Loading constellations...